Time,TemperatureF,DewpointF,PressureIn,WindDirection,WindDirectionDegrees,WindSpeedMPH,WindSpeedGustMPH,Humidity,HourlyPrecipIn,Conditions,Clouds,dailyrainin,SoftwareType,DateUTC
2016-08-27 00:11:00,71.4,62.0,30.06,SSE,148,1.0,-999.0,72,-99.99,,,0.00,weatherlink.com 1.10,2016-08-27 04:11:00,
2016-08-27 00:26:00,71.3,62.0,30.06,SSE,148,0.0,-999.0,72,-99.99,,,0.00,weatherlink.com 1.10,2016-08-27 04:26:00,
2016-08-27 00:41:00,70.9,61.0,30.07,SSE,148,0.0,-999.0,72,-99.99,,,0.00,weatherlink.com 1.10,2016-08-27 04:41:00,
2016-08-27 00:57:00,70.5,61.0,30.07,SSE,148,0.0,-999.0,72,-99.99,,,0.00,weatherlink.com 1.10,2016-08-27 04:57:00,
2016-08-27 01:11:00,69.9,60.0,30.07,SSE,148,0.0,-999.0,72,-99.99,,,0.00,weatherlink.com 1.10,2016-08-27 05:11:00,
2016-08-27 01:27:00,69.4,60.0,30.07,SSE,148,0.0,-999.0,72,-99.99,,,0.00,weatherlink.com 1.10,2016-08-27 05:27:00,
2016-08-27 01:42:00,68.9,59.0,30.08,SSE,148,0.0,-999.0,71,-99.99,,,0.00,weatherlink.com 1.10,2016-08-27 05:42:00,
2016-08-27 01:57:00,68.5,59.0,30.08,SSE,148,0.0,-999.0,71,-99.99,,,0.00,weatherlink.com 1.10,2016-08-27 05:57:00,
2016-08-27 02:11:00,68.3,59.0,30.08,SSE,149,0.0,-999.0,71,-99.99,,,0.00,weatherlink.com 1.10,2016-08-27 06:11:00,
2016-08-27 02:26:00,68.0,58.0,30.08,SSE,149,0.0,-999.0,71,-99.99,,,0.00,weatherlink.com 1.10,2016-08-27 06:26:00,
2016-08-27 02:41:00,67.8,58.0,30.08,SSE,149,0.0,-999.0,71,-99.99,,,0.00,weatherlink.com 1.10,2016-08-27 06:41:00,
2016-08-27 02:57:00,67.5,58.0,30.09,SSE,150,0.0,-999.0,71,-99.99,,,0.00,weatherlink.com 1.10,2016-08-27 06:57:00,
2016-08-27 03:11:00,67.3,57.0,30.09,SSE,149,0.0,-999.0,70,-99.99,,,0.00,weatherlink.com 1.10,2016-08-27 07:11:00,
2016-08-27 03:27:00,67.0,57.0,30.09,SSE,149,0.0,-999.0,70,-99.99,,,0.00,weatherlink.com 1.10,2016-08-27 07:27:00,
2016-08-27 03:41:00,66.7,57.0,30.09,SSE,149,1.0,-999.0,70,-99.99,,,0.00,weatherlink.com 1.10,2016-08-27 07:41:00,
2016-08-27 03:57:00,66.5,56.0,30.09,SSE,149,0.0,-999.0,70,-99.99,,,0.00,weatherlink.com 1.10,2016-08-27 07:57:00,
2016-08-27 04:12:00,66.1,56.0,30.09,SSE,150,0.0,-999.0,69,-99.99,,,0.00,weatherlink.com 1.10,2016-08-27 08:12:00,
2016-08-27 04:27:00,65.7,55.0,30.10,SSE,150,0.0,-999.0,69,-99.99,,,0.00,weatherlink.com 1.10,2016-08-27 08:27:00,
2016-08-27 04:42:00,65.5,55.0,30.10,SSE,150,0.0,-999.0,69,-99.99,,,0.00,weatherlink.com 1.10,2016-08-27 08:42:00,
2016-08-27 04:57:00,65.3,55.0,30.10,SSE,150,0.0,-999.0,69,-99.99,,,0.00,weatherlink.com 1.10,2016-08-27 08:57:00,
2016-08-27 05:12:00,64.9,54.0,30.11,SSE,150,0.0,-999.0,69,-99.99,,,0.00,weatherlink.com 1.10,2016-08-27 09:12:00,
2016-08-27 05:27:00,64.6,54.0,30.11,SSE,150,0.0,-999.0,68,-99.99,,,0.00,weatherlink.com 1.10,2016-08-27 09:27:00,
2016-08-27 05:42:00,64.3,53.0,30.12,SSE,150,0.0,-999.0,68,-99.99,,,0.00,weatherlink.com 1.10,2016-08-27 09:42:00,
2016-08-27 05:58:00,64.1,53.0,30.12,SSE,150,0.0,-999.0,68,-99.99,,,0.00,weatherlink.com 1.10,2016-08-27 09:58:00,
2016-08-27 06:12:00,64.0,53.0,30.14,SSE,150,0.0,-999.0,68,-99.99,,,0.00,weatherlink.com 1.10,2016-08-27 10:12:00,
2016-08-27 06:27:00,63.8,53.0,30.14,SSE,150,0.0,-999.0,67,-99.99,,,0.00,weatherlink.com 1.10,2016-08-27 10:27:00,
2016-08-27 06:42:00,63.6,52.0,30.15,SSE,150,0.0,-999.0,67,-99.99,,,0.00,weatherlink.com 1.10,2016-08-27 10:42:00,
2016-08-27 06:57:00,63.3,53.0,30.16,SSE,150,0.0,-999.0,68,-99.99,,,0.00,weatherlink.com 1.10,2016-08-27 10:57:00,
2016-08-27 07:13:00,63.1,52.0,30.16,SSE,150,0.0,-999.0,68,-99.99,,,0.00,weatherlink.com 1.10,2016-08-27 11:13:00,
2016-08-27 07:27:00,63.2,52.0,30.17,SSE,150,0.0,-999.0,67,-99.99,,,0.00,weatherlink.com 1.10,2016-08-27 11:27:00,
2016-08-27 07:57:00,63.9,52.0,30.17,SSE,150,0.0,-999.0,66,-99.99,,,0.00,weatherlink.com 1.10,2016-08-27 11:57:00,
2016-08-27 08:13:00,64.4,53.0,30.17,SSE,150,0.0,-999.0,66,-99.99,,,0.00,weatherlink.com 1.10,2016-08-27 12:13:00,
2016-08-27 08:28:00,65.0,53.0,30.17,SSE,150,0.0,-999.0,66,-99.99,,,0.00,weatherlink.com 1.10,2016-08-27 12:28:00,
2016-08-27 08:43:00,65.8,54.0,30.17,SSE,149,0.0,-999.0,66,-99.99,,,0.00,weatherlink.com 1.10,2016-08-27 12:43:00,
2016-08-27 08:58:00,66.7,55.0,30.18,SSE,149,0.0,-999.0,66,-99.99,,,0.00,weatherlink.com 1.10,2016-08-27 12:58:00,
2016-08-27 09:13:00,68.0,57.0,30.18,SSE,149,0.0,-999.0,69,-99.99,,,0.00,weatherlink.com 1.10,2016-08-27 13:13:00,
2016-08-27 09:28:00,69.2,59.0,30.19,SW,230,0.0,-999.0,70,-99.99,,,0.00,weatherlink.com 1.10,2016-08-27 13:28:00,
2016-08-27 09:43:00,70.3,60.0,30.19,WNW,288,0.0,-999.0,71,-99.99,,,0.00,weatherlink.com 1.10,2016-08-27 13:43:00,
2016-08-27 09:58:00,71.3,62.0,30.19,North,360,0.0,-999.0,72,-99.99,,,0.00,weatherlink.com 1.10,2016-08-27 13:58:00,
2016-08-27 10:12:00,72.2,63.0,30.19,NW,325,0.0,-999.0,72,-99.99,,,0.00,weatherlink.com 1.10,2016-08-27 14:12:00,
2016-08-27 10:28:00,73.2,64.0,30.19,NNE,15,0.0,-999.0,72,-99.99,,,0.00,weatherlink.com 1.10,2016-08-27 14:28:00,
2016-08-27 10:43:00,73.9,64.0,30.18,West,279,0.0,-999.0,72,-99.99,,,0.00,weatherlink.com 1.10,2016-08-27 14:43:00,
2016-08-27 10:58:00,74.8,65.0,30.18,WNW,294,0.0,-999.0,71,-99.99,,,0.00,weatherlink.com 1.10,2016-08-27 14:58:00,
2016-08-27 11:13:00,75.5,65.0,30.18,North,9,1.0,-999.0,71,-99.99,,,0.00,weatherlink.com 1.10,2016-08-27 15:13:00,
2016-08-27 11:28:00,76.3,66.0,30.18,NNW,343,0.0,-999.0,70,-99.99,,,0.00,weatherlink.com 1.10,2016-08-27 15:28:00,
2016-08-27 11:44:00,77.0,67.0,30.18,NNW,336,0.0,-999.0,70,-99.99,,,0.00,weatherlink.com 1.10,2016-08-27 15:44:00,
2016-08-27 11:59:00,77.5,67.0,30.17,NNW,342,0.0,-999.0,69,-99.99,,,0.00,weatherlink.com 1.10,2016-08-27 15:59:00,
2016-08-27 12:13:00,77.9,67.0,30.17,NNW,341,0.0,-999.0,68,-99.99,,,0.00,weatherlink.com 1.10,2016-08-27 16:13:00,
2016-08-27 12:28:00,78.2,66.0,30.17,NE,37,1.0,-999.0,67,-99.99,,,0.00,weatherlink.com 1.10,2016-08-27 16:28:00,
2016-08-27 12:43:00,78.7,67.0,30.17,ENE,71,1.0,-999.0,67,-99.99,,,0.00,weatherlink.com 1.10,2016-08-27 16:43:00,
2016-08-27 12:58:00,79.0,67.0,30.17,North,355,1.0,-999.0,66,-99.99,,,0.00,weatherlink.com 1.10,2016-08-27 16:58:00,
2016-08-27 13:14:00,79.3,67.0,30.17,ENE,68,2.0,-999.0,66,-99.99,,,0.00,weatherlink.com 1.10,2016-08-27 17:14:00,
2016-08-27 13:28:00,79.7,67.0,30.17,NNW,335,1.0,-999.0,65,-99.99,,,0.00,weatherlink.com 1.10,2016-08-27 17:28:00,
2016-08-27 13:43:00,79.9,66.0,30.16,West,261,0.0,-999.0,62,-99.99,,,0.00,weatherlink.com 1.10,2016-08-27 17:43:00,
2016-08-27 13:58:00,80.4,67.0,30.16,North,360,0.0,-999.0,64,-99.99,,,0.00,weatherlink.com 1.10,2016-08-27 17:58:00,
2016-08-27 14:13:00,80.8,69.0,30.16,North,5,0.0,-999.0,67,-99.99,,,0.00,weatherlink.com 1.10,2016-08-27 18:13:00,
2016-08-27 14:28:00,80.9,68.0,30.16,North,5,1.0,-999.0,66,-99.99,,,0.00,weatherlink.com 1.10,2016-08-27 18:28:00,
2016-08-27 14:43:00,81.5,68.0,30.15,West,263,2.0,-999.0,63,-99.99,,,0.00,weatherlink.com 1.10,2016-08-27 18:43:00,
2016-08-27 14:58:00,82.4,68.0,30.15,WSW,242,2.0,-999.0,62,-99.99,,,0.00,weatherlink.com 1.10,2016-08-27 18:58:00,
2016-08-27 15:13:00,83.4,67.0,30.15,WSW,241,0.0,-999.0,58,-99.99,,,0.00,weatherlink.com 1.10,2016-08-27 19:13:00,
2016-08-27 15:28:00,83.2,68.0,30.15,WNW,286,0.0,-999.0,61,-99.99,,,0.00,weatherlink.com 1.10,2016-08-27 19:28:00,
2016-08-27 15:44:00,82.4,69.0,30.15,WSW,252,1.0,-999.0,64,-99.99,,,0.00,weatherlink.com 1.10,2016-08-27 19:44:00,
2016-08-27 15:59:00,82.1,68.0,30.15,WSW,238,2.0,-999.0,62,-99.99,,,0.00,weatherlink.com 1.10,2016-08-27 19:59:00,
2016-08-27 16:14:00,81.3,68.0,30.15,WSW,238,0.0,-999.0,64,-99.99,,,0.00,weatherlink.com 1.10,2016-08-27 20:14:00,
2016-08-27 16:29:00,81.1,69.0,30.15,West,260,1.0,-999.0,66,-99.99,,,0.00,weatherlink.com 1.10,2016-08-27 20:29:00,
2016-08-27 16:44:00,80.6,68.0,30.15,WNW,299,0.0,-999.0,65,-99.99,,,0.00,weatherlink.com 1.10,2016-08-27 20:44:00,
2016-08-27 16:59:00,80.5,69.0,30.15,WNW,299,0.0,-999.0,68,-99.99,,,0.00,weatherlink.com 1.10,2016-08-27 20:59:00,
2016-08-27 17:14:00,80.1,69.0,30.15,WNW,299,0.0,-999.0,68,-99.99,,,0.00,weatherlink.com 1.10,2016-08-27 21:14:00,
2016-08-27 17:29:00,79.6,69.0,30.16,WNW,299,0.0,-999.0,69,-99.99,,,0.00,weatherlink.com 1.10,2016-08-27 21:29:00,
2016-08-27 17:44:00,79.0,68.0,30.16,WNW,299,0.0,-999.0,69,-99.99,,,0.00,weatherlink.com 1.10,2016-08-27 21:44:00,
2016-08-27 17:59:00,78.7,68.0,30.16,WNW,299,0.0,-999.0,69,-99.99,,,0.00,weatherlink.com 1.10,2016-08-27 21:59:00,
2016-08-27 18:14:00,78.3,68.0,30.16,WNW,299,0.0,-999.0,70,-99.99,,,0.00,weatherlink.com 1.10,2016-08-27 22:14:00,
2016-08-27 18:29:00,78.0,67.0,30.16,WNW,299,0.0,-999.0,70,-99.99,,,0.00,weatherlink.com 1.10,2016-08-27 22:29:00,
2016-08-27 18:44:00,77.4,67.0,30.16,WNW,299,0.0,-999.0,71,-99.99,,,0.00,weatherlink.com 1.10,2016-08-27 22:44:00,
2016-08-27 19:00:00,76.4,66.0,30.17,WNW,299,0.0,-999.0,71,-99.99,,,0.00,weatherlink.com 1.10,2016-08-27 23:00:00,
2016-08-27 19:14:00,75.5,65.0,30.17,WNW,292,0.0,-999.0,71,-99.99,,,0.00,weatherlink.com 1.10,2016-08-27 23:14:00,
2016-08-27 19:29:00,75.0,65.0,30.18,WNW,293,0.0,-999.0,71,-99.99,,,0.00,weatherlink.com 1.10,2016-08-27 23:29:00,